TimeMDT,TemperatureF,Dew PointF,Humidity,Sea Level PressureIn,VisibilityMPH,Wind Direction,Wind SpeedMPH,Gust SpeedMPH,PrecipitationIn,Events,Conditions,WindDirDegrees,DateUTC
12:15 AM,84.2,45.5,26,30.07,10.0,SE,11.5,-,N/A,,Clear,130,2013-07-08 06:15:00
12:35 AM,83.8,45.9,26,30.07,10.0,SE,10.4,16.1,N/A,,Clear,140,2013-07-08 06:35:00
12:55 AM,83.3,46.6,28,30.08,10.0,SSE,8.1,-,N/A,,Scattered Clouds,150,2013-07-08 06:55:00
1:15 AM,83.5,46.6,27,30.09,10.0,SW,6.9,-,N/A,,Mostly Cloudy,230,2013-07-08 07:15:00
1:35 AM,83.3,46.9,28,30.10,10.0,SSE,3.5,-,N/A,,Overcast,160,2013-07-08 07:35:00
1:55 AM,80.6,59.0,48,30.10,10.0,WSW,5.8,-,N/A,,Overcast,240,2013-07-08 07:55:00
2:15 AM,78.8,59.7,52,30.11,10.0,Calm,Calm,-,N/A,Rain,Light Rain,0,2013-07-08 08:15:00
2:35 AM,78.1,59.9,53,30.11,10.0,Calm,Calm,-,N/A,,Mostly Cloudy,0,2013-07-08 08:35:00
2:55 AM,80.1,55.8,43,30.11,10.0,SW,5.8,-,N/A,,Mostly Cloudy,220,2013-07-08 08:55:00
3:15 AM,78.1,57.0,48,30.11,10.0,SW,6.9,-,N/A,Thunderstorm,Scattered Clouds,230,2013-07-08 09:15:00
3:35 AM,77.2,58.1,52,30.12,10.0,Calm,Calm,-,N/A,,Mostly Cloudy,0,2013-07-08 09:35:00
3:55 AM,76.5,59.0,55,30.11,10.0,Calm,Calm,-,N/A,,Overcast,0,2013-07-08 09:55:00
4:15 AM,76.5,57.4,52,30.11,10.0,Calm,Calm,-,N/A,,Mostly Cloudy,0,2013-07-08 10:15:00
4:55 AM,75.4,57.6,54,30.11,10.0,West,4.6,-,N/A,,Clear,280,2013-07-08 10:55:00
5:15 AM,75.9,57.7,53,30.11,10.0,West,4.6,-,N/A,,Scattered Clouds,270,2013-07-08 11:15:00
5:35 AM,76.1,57.0,51,30.11,10.0,South,4.6,-,N/A,,Mostly Cloudy,190,2013-07-08 11:35:00
5:55 AM,76.1,56.1,50,30.12,10.0,SSW,3.5,-,N/A,,Mostly Cloudy,200,2013-07-08 11:55:00
6:15 AM,74.1,55.8,53,30.12,10.0,SSW,4.6,-,N/A,,Mostly Cloudy,210,2013-07-08 12:15:00
6:35 AM,74.5,56.7,54,30.12,10.0,SW,5.8,-,N/A,,Clear,220,2013-07-08 12:35:00
6:55 AM,74.3,57.2,55,30.12,10.0,SW,5.8,-,N/A,,Scattered Clouds,230,2013-07-08 12:55:00
7:15 AM,74.8,56.8,53,30.12,10.0,Calm,Calm,-,N/A,,Scattered Clouds,0,2013-07-08 13:15:00
7:35 AM,75.4,56.5,52,30.12,10.0,East,5.8,-,N/A,,Clear,100,2013-07-08 13:35:00
7:55 AM,75.6,56.3,51,30.14,10.0,Calm,Calm,-,N/A,,Clear,0,2013-07-08 13:55:00
8:15 AM,76.6,55.9,49,30.14,10.0,Calm,Calm,-,N/A,,Clear,0,2013-07-08 14:15:00
8:35 AM,79.2,54.5,42,30.15,10.0,Calm,Calm,-,N/A,,Scattered Clouds,0,2013-07-08 14:35:00
8:55 AM,82.8,51.3,33,30.15,10.0,SE,9.2,-,N/A,,Scattered Clouds,140,2013-07-08 14:55:00
9:15 AM,82.4,51.3,34,30.16,10.0,ESE,11.5,-,N/A,,Mostly Cloudy,110,2013-07-08 15:15:00
9:35 AM,83.5,51.1,32,30.16,10.0,ESE,10.4,-,N/A,,Overcast,120,2013-07-08 15:35:00
9:55 AM,84.7,51.1,31,30.16,10.0,ESE,8.1,-,N/A,,Mostly Cloudy,110,2013-07-08 15:55:00
10:15 AM,87.1,50.5,28,30.16,10.0,ESE,10.4,-,N/A,,Mostly Cloudy,120,2013-07-08 16:15:00
10:35 AM,87.3,51.4,29,30.16,10.0,East,6.9,-,N/A,,Scattered Clouds,100,2013-07-08 16:35:00
10:55 AM,88.2,51.1,28,30.16,10.0,East,5.8,-,N/A,,Scattered Clouds,90,2013-07-08 16:55:00
11:15 AM,89.4,50.2,26,30.16,10.0,East,5.8,-,N/A,,Clear,100,2013-07-08 17:15:00
11:35 AM,90.0,50.0,25,30.16,10.0,ESE,6.9,-,N/A,,Clear,110,2013-07-08 17:35:00
11:55 AM,90.7,49.8,25,30.15,10.0,SSE,5.8,17.3,N/A,,Clear,150,2013-07-08 17:55:00
12:15 PM,91.4,50.0,24,30.15,10.0,East,9.2,-,N/A,,Clear,90,2013-07-08 18:15:00
12:35 PM,91.8,50.0,24,30.14,10.0,East,4.6,-,N/A,,Clear,90,2013-07-08 18:35:00
12:55 PM,92.7,49.1,22,30.13,10.0,East,6.9,-,N/A,,Scattered Clouds,100,2013-07-08 18:55:00
1:15 PM,94.5,49.1,21,30.12,10.0,East,6.9,-,N/A,,Scattered Clouds,80,2013-07-08 19:15:00
1:35 PM,93.6,48.7,22,30.11,10.0,Calm,Calm,-,N/A,,Scattered Clouds,0,2013-07-08 19:35:00
1:55 PM,96.1,48.6,20,30.11,10.0,ESE,9.2,18.4,N/A,,Clear,110,2013-07-08 19:55:00
2:15 PM,95.7,48.2,20,30.10,10.0,East,8.1,20.7,N/A,,Clear,90,2013-07-08 20:15:00
2:35 PM,96.8,47.5,19,30.09,10.0,SSE,4.6,-,N/A,,Clear,150,2013-07-08 20:35:00
2:55 PM,96.4,47.3,19,30.08,10.0,SE,5.8,17.3,N/A,,Clear,130,2013-07-08 20:55:00
3:15 PM,95.7,47.3,19,30.07,10.0,SE,12.7,23.0,N/A,,Clear,140,2013-07-08 21:15:00
3:35 PM,96.6,46.4,18,30.07,10.0,SSE,15.0,19.6,N/A,,Clear,160,2013-07-08 21:35:00
3:55 PM,97.9,44.8,16,30.07,10.0,SE,18.4,24.2,N/A,,Clear,130,2013-07-08 21:55:00
4:15 PM,96.6,43.7,16,30.07,10.0,ESE,13.8,23.0,N/A,,Clear,120,2013-07-08 22:15:00
4:35 PM,96.4,42.3,15,30.06,10.0,ESE,11.5,18.4,N/A,,Clear,110,2013-07-08 22:35:00
4:55 PM,97.5,42.8,15,30.06,10.0,SE,15.0,23.0,N/A,,Clear,140,2013-07-08 22:55:00
5:15 PM,97.0,42.6,15,30.06,10.0,SSE,10.4,19.6,N/A,,Clear,150,2013-07-08 23:15:00
5:35 PM,96.4,43.9,16,30.05,10.0,East,10.4,18.4,N/A,,Clear,90,2013-07-08 23:35:00
5:55 PM,95.7,44.4,17,30.05,10.0,SSE,9.2,-,N/A,,Clear,150,2013-07-08 23:55:00
6:15 PM,94.8,45.1,18,30.04,10.0,SE,12.7,16.1,N/A,,Clear,130,2013-07-09 00:15:00
6:35 PM,94.1,45.1,19,30.05,10.0,SE,10.4,-,N/A,,Clear,130,2013-07-09 00:35:00
6:55 PM,93.2,45.5,19,30.06,10.0,SE,9.2,-,N/A,,Clear,130,2013-07-09 00:55:00
7:15 PM,92.7,45.3,20,30.06,10.0,SE,12.7,-,N/A,,Clear,130,2013-07-09 01:15:00
7:35 PM,92.3,44.8,19,30.06,10.0,ESE,9.2,-,N/A,,Clear,120,2013-07-09 01:35:00
7:55 PM,91.6,45.0,20,30.07,10.0,ESE,6.9,-,N/A,,Clear,120,2013-07-09 01:55:00
8:15 PM,90.9,45.1,21,30.08,10.0,ESE,8.1,-,N/A,,Clear,120,2013-07-09 02:15:00
8:35 PM,90.1,45.1,21,30.08,10.0,ESE,4.6,-,N/A,,Scattered Clouds,120,2013-07-09 02:35:00
8:55 PM,89.6,45.0,21,30.09,10.0,East,6.9,-,N/A,,Overcast,100,2013-07-09 02:55:00
9:15 PM,87.6,49.8,27,30.11,10.0,NNE,10.4,-,N/A,,Scattered Clouds,20,2013-07-09 03:15:00
9:35 PM,86.0,50.9,30,30.12,10.0,North,5.8,-,N/A,,Clear,10,2013-07-09 03:35:00
9:55 PM,85.5,50.7,30,30.12,10.0,NNE,9.2,-,N/A,,Clear,30,2013-07-09 03:55:00
10:15 PM,85.5,51.1,30,30.13,10.0,NNE,12.7,-,N/A,,Clear,20,2013-07-09 04:15:00
10:35 PM,82.4,55.2,39,30.14,10.0,NNE,15.0,20.7,N/A,,Clear,20,2013-07-09 04:35:00
10:55 PM,81.7,55.2,40,30.14,10.0,North,12.7,19.6,N/A,,Clear,360,2013-07-09 04:55:00
11:15 PM,81.9,53.2,37,30.14,10.0,North,15.0,20.7,N/A,,Clear,360,2013-07-09 05:15:00
11:35 PM,81.5,53.6,38,30.15,10.0,North,11.5,-,N/A,,Clear,350,2013-07-09 05:35:00
11:55 PM,81.0,54.1,39,30.15,10.0,North,9.2,-,N/A,,Clear,350,2013-07-09 05:55:00